Theta_e
316 318 322 325 326 327 329 330 330 330 331 331 330 329 326 327 324 324 324 323 322 320 319 316 315 315 313 313 313 312 311 311 309 310 308 308 308 309 308 310 308 308 307
316 316 319 321 323 325 326 326 327 327 328 327 323 321 317 317 317 317 317 317 316 314 313 313 310 310 309 308 308 308 309 310 308 307 307 309 311 308 309 310 308 307 308
313 315 317 321 323 324 324 324 324 322 320 316 313 311 311 311 311 312 312 310 309 308 308 307 307 307 306 306 307 307 309 309 308 309 310 309 308 308 310 310 309 309 308
314 315 317 321 321 322 324 321 315 314 311 308 307 307 307 308 308 307 307 306 306 306 306 305 305 304 305 305 305 307 308 309 309 308 307 308 308 309 309 309 310 308 308
312 314 317 318 318 319 316 313 312 309 307 306 305 305 305 306 306 305 305 304 305 305 305 305 304 304 303 304 305 306 306 307 306 308 309 309 311 310 309 309 308 309 309
312 313 314 317 317 315 311 308 307 304 303 303 303 303 303 304 306 306 304 303 302 302 303 303 303 303 304 304 305 307 308 310 309 310 311 310 309 309 309 309 308 309 310
311 313 313 316 315 310 307 305 302 301 301 301 301 302 303 303 303 302 303 303 302 301 302 302 301 301 302 302 303 305 307 309 310 310 310 308 308 308 307 308 308 308 308
311 313 314 315 310 306 304 301 300 301 300 300 300 301 301 301 301 301 300 301 300 300 301 301 304 305 305 307 308 309 309 309 308 309 308 307 306 307 307 306 307 308 307
311 312 314 312 305 302 301 300 300 300 299 299 300 300 300 300 299 300 302 302 304 304 304 304 305 304 305 306 309 309 308 306 305 305 302 302 302 303 305 306 306 307 307
310 313 311 305 302 301 300 299 299 298 298 299 299 299 300 300 300 302 303 301 302 302 304 303 302 302 304 307 309 308 308 309 308 309 305 305 306 305 303 303 303 304 304
311 309 303 302 300 299 299 298 299 299 299 299 299 300 300 300 300 303 303 303 304 304 304 303 302 303 304 304 305 306 307 308 307 307 306 306 306 305 303 302 300 300 300
308 303 301 300 299 299 299 299 299 299 300 301 302 302 302 301 301 301 303 303 304 304 305 304 301 302 302 303 303 304 305 306 306 306 306 306 305 304 303 300 299 298 297
304 300 300 299 299 299 299 299 300 302 303 303 302 303 303 302 301 301 301 302 303 304 303 302 303 303 304 304 305 306 307 306 306 306 305 304 303 302 302 300 298 298 297
301 299 299 299 300 299 300 302 303 303 303 302 303 303 302 302 303 304 304 304 304 304 304 303 304 304 305 305 306 306 306 306 306 305 304 303 303 301 300 300 298 298 298
300 300 299 300 300 301 302 303 302 302 303 303 303 303 303 301 298 301 302 303 303 304 305 304 305 305 306 306 305 305 305 305 306 304 303 302 301 300 300 298 298 298 298
300 300 300 299 299 300 301 300 300 301 301 301 301 301 298 298 299 300 301 302 303 304 304 303 304 304 305 305 305 305 305 305 305 303 303 301 300 299 299 298 297 297 297
299 299 300 299 303 303 303 302 300 298 299 299 299 299 299 300 300 300 301 301 302 303 303 303 303 303 304 304 305 305 304 304 304 303 302 300 299 299 298 297 297 296 296
300 300 299 303 303 304 303 302 302 302 301 299 297 299 299 300 301 301 302 303 303 302 302 303 303 303 304 304 304 304 305 303 305 303 302 299 299 299 298 297 297 296 296
300 299 303 304 303 303 303 302 302 301 301 301 300 299 299 299 299 300 300 301 301 302 302 302 302 302 303 303 304 304 304 303 304 303 303 301 300 300 300 298 297 296 296
299 302 303 303 304 303 303 303 303 302 302 302 301 301 300 300 299 299 299 299 299 300 301 301 301 301 301 301 302 302 303 303 302 303 303 302 301 301 300 300 299 299 298
301 303 303 304 303 303 303 302 302 300 299 299 298 297 296 297 297 297 297 297 298 299 300 300 300 300 300 302 302 302 302 302 302 302 302 302 302 302 302 302 301 300 300
303 304 304 304 303 303 302 301 299 298 298 298 296 294 295 295 295 295 295 296 297 298 299 299 299 299 300 301 301 301 301 301 301 302 302 303 302 302 302 302 302 301 301
304 303 303 303 301 300 300 299 298 298 298 297 296 295 295 295 295 295 295 296 297 298 298 298 300 300 300 299 300 301 301 301 301 301 302 302 303 302 302 302 302 302 301
303 302 302 301 301 300 299 298 297 297 297 296 296 295 295 295 295 295 295 295 295 296 297 298 299 299 299 299 298 298 299 301 302 302 302 302 302 302 302 302 301 301 301
302 302 301 301 300 298 297 297 297 296 296 296 295 295 295 295 295 295 294 294 294 295 295 296 297 298 297 297 297 297 298 299 300 301 301 302 301 302 302 302 302 302 301
302 301 301 300 299 298 297 297 296 296 296 295 295 295 295 295 295 295 294 294 294 293 293 294 294 295 295 295 296 297 298 299 299 300 301 301 301 301 301 301 301 301 301
Wind_Speed
31 28 22 19 17 15 15 16 15 14 14 15 15 16 16 15 13 14 12 10 10 8 11 9 7 10 14 11 14 15 15 14 8 11 15 11 6 3 0 2 4 2 4
21 27 25 21 21 20 19 18 16 16 15 14 13 13 14 13 12 9 5 3 2 6 9 15 11 11 16 15 16 16 12 9 17 14 15 9 5 2 2 3 1 1 1
19 27 23 21 21 20 18 17 17 15 14 14 13 13 13 12 10 9 11 14 17 19 18 18 17 16 17 15 16 15 15 18 20 17 13 8 5 2 3 3 0 2 2
13 22 18 19 19 18 16 15 14 14 13 14 14 14 15 16 16 19 23 26 26 24 22 22 18 14 12 12 14 15 15 16 17 16 12 10 7 3 1 4 1 2 2
14 16 15 15 16 14 12 11 13 14 13 13 15 19 22 23 24 27 31 33 29 28 25 24 19 16 4 8 15 15 15 15 16 14 11 9 7 6 7 6 6 4 8
15 14 15 14 11 9 9 10 12 13 15 19 22 23 24 27 29 32 33 34 31 24 21 21 21 16 11 12 14 11 8 9 12 11 12 11 9 9 9 8 7 7 3
16 12 14 12 7 6 7 11 13 18 22 23 24 26 28 27 25 28 29 30 29 25 19 20 20 17 14 17 15 15 17 19 18 14 14 12 10 10 10 9 8 7 7
12 10 11 7 5 8 11 15 18 21 20 21 22 23 26 24 22 25 26 27 27 22 16 13 12 7 6 13 12 15 14 13 13 13 12 12 11 11 10 5 7 2 7
9 9 4 4 7 11 16 22 20 22 22 23 23 23 22 19 20 20 22 21 17 14 13 9 11 10 11 7 13 15 14 13 15 14 13 14 15 18 18 15 14 10 5
9 2 4 8 11 16 23 23 23 24 23 23 24 23 20 17 16 16 15 20 17 14 10 12 14 13 10 12 11 15 14 10 11 10 9 6 6 12 19 19 15 13 10
2 7 9 13 20 24 26 24 24 23 24 22 24 21 19 15 17 15 14 11 8 11 13 11 13 15 15 15 15 13 10 10 10 13 14 14 12 16 15 18 18 15 11
10 12 17 22 23 26 27 22 23 24 23 18 21 19 18 18 18 15 15 14 12 14 15 13 13 18 17 18 16 13 9 11 14 16 15 15 14 13 17 21 20 22 19
15 18 23 24 26 24 23 23 20 15 18 18 16 17 19 19 21 23 20 20 20 18 16 15 18 19 17 19 18 12 17 18 19 18 18 16 19 19 14 16 18 21 32
21 23 24 25 22 23 24 19 20 19 19 19 18 17 15 13 13 14 14 15 17 18 19 18 18 21 20 17 17 19 20 22 19 16 15 17 17 17 15 15 17 16 20
24 24 25 24 23 21 19 15 17 23 19 17 18 19 19 19 19 19 17 16 17 16 18 17 18 19 18 20 20 19 23 20 21 19 22 22 18 16 18 21 22 20 21
25 24 24 24 21 22 25 26 27 25 24 27 27 24 23 24 24 26 25 24 20 16 24 24 22 20 18 17 17 17 20 20 21 18 22 22 20 18 20 23 24 23 22
26 28 26 23 25 25 28 27 25 27 30 29 26 25 26 26 28 29 27 26 21 22 25 20 18 18 19 19 20 20 20 19 19 20 28 22 20 22 23 22 22 23 26
28 28 27 23 24 27 27 22 23 24 24 23 24 24 25 25 24 20 18 19 23 24 23 21 21 21 21 21 20 19 20 18 19 21 27 26 25 25 23 24 23 24 24
30 27 24 25 25 28 24 22 24 24 24 23 21 21 22 25 24 23 23 24 24 23 22 21 20 20 20 22 19 18 18 19 20 19 22 22 22 19 22 27 29 29 26
30 26 27 28 26 26 24 23 22 21 19 18 19 17 16 18 22 25 25 24 24 23 22 21 21 21 21 20 17 17 18 20 19 18 20 21 21 20 24 24 22 21 22
28 26 27 27 27 24 23 22 22 21 21 21 22 20 21 23 24 23 22 22 21 22 21 21 20 21 20 20 20 21 20 19 17 18 17 20 18 20 18 19 25 24 24
27 27 27 27 26 24 24 23 23 23 23 24 24 27 27 25 24 23 22 22 22 22 21 21 21 21 21 20 20 20 21 19 18 17 17 19 19 21 21 20 21 22 21
27 28 28 26 27 26 24 23 23 23 24 24 24 24 22 23 23 23 24 23 23 24 24 24 23 23 23 22 20 20 20 19 18 18 18 18 20 20 19 20 22 22 20
28 28 30 26 25 25 24 25 25 25 25 25 24 22 21 21 22 24 25 24 24 24 25 27 27 27 24 24 23 21 19 18 19 20 19 19 19 19 20 20 21 20 21
30 28 27 26 26 26 25 25 25 24 25 24 22 21 20 21 22 23 24 24 24 26 26 25 25 26 27 27 25 24 26 24 20 20 21 22 22 21 20 20 20 20 20
28 26 26 25 25 25 25 25 24 24 25 23 21 20 20 21 21 22 22 22 24 25 24 25 26 27 26 26 28 28 30 29 26 23 21 21 21 21 21 22 21 21 21
Wind_Direction
340 334 345 357 355 0 5 0 357 344 339 336 337 332 330 322 311 294 280 266 228 212 184 149 134 151 145 133 129 120 109 107 120 128 156 157 155 154 0 263 230 227 194
325 323 332 347 347 357 4 360 353 348 351 355 359 355 354 346 341 337 348 6 111 109 111 129 116 124 114 116 115 115 129 145 146 136 146 163 162 134 205 206 197 171 270
313 310 321 337 348 351 354 356 2 2 8 12 17 17 17 19 30 58 84 87 82 82 86 89 98 104 103 112 121 127 123 126 132 138 135 130 134 154 192 181 172 305 311
304 302 321 337 345 347 354 7 18 15 25 35 40 46 54 59 66 79 87 84 81 84 86 86 85 88 107 128 131 120 122 120 123 119 124 129 119 138 86 25 42 19 5
317 312 330 340 344 358 8 15 21 32 47 57 66 71 76 83 85 87 87 84 77 75 77 80 76 77 79 106 122 117 130 135 135 124 126 119 88 63 28 18 16 340 117
305 314 326 326 354 11 25 39 52 61 70 77 78 81 83 89 96 97 94 90 91 80 79 77 84 89 91 100 95 104 128 109 98 110 97 87 68 46 35 13 21 357 60
292 302 313 335 19 51 74 74 76 83 84 79 78 80 81 88 90 94 96 95 89 88 80 88 94 95 99 102 99 92 82 80 77 82 82 71 70 47 32 20 21 346 37
282 289 309 1 84 99 93 91 93 90 83 78 78 79 79 81 87 94 97 95 90 90 88 90 91 117 126 121 115 99 85 70 63 78 85 74 60 37 6 334 338 306 119
280 266 324 106 122 113 102 100 96 92 84 79 79 78 77 79 88 98 98 100 91 83 96 101 96 98 96 111 102 97 94 88 77 83 91 85 63 40 31 23 10 33 20
275 357 95 125 127 111 108 104 101 94 88 82 78 75 71 68 75 100 90 86 86 91 76 73 82 82 93 76 96 94 84 75 92 109 102 91 68 47 44 35 24 33 24
138 107 114 122 113 113 108 106 99 94 85 77 74 69 64 66 77 82 86 94 101 111 95 73 68 78 78 76 73 77 91 92 87 74 77 84 76 59 47 43 44 45 42
123 114 112 114 113 112 110 103 98 92 91 84 81 80 71 68 73 78 79 66 94 89 85 91 81 74 68 73 72 76 52 72 73 71 67 62 59 58 63 60 59 59 61
115 112 114 112 116 113 108 102 93 92 88 87 85 83 79 76 67 68 77 80 84 85 85 81 70 67 70 65 74 55 62 62 64 62 67 59 63 73 75 66 67 65 66
119 117 115 115 107 101 101 92 92 93 93 90 84 76 73 64 64 73 78 77 79 85 84 80 79 83 78 73 67 63 61 60 66 67 68 72 61 60 63 66 66 64 68
120 121 111 107 100 97 83 82 76 76 81 90 85 78 75 65 64 75 77 72 77 81 84 83 77 66 67 66 59 60 58 50 62 62 61 67 63 64 61 70 65 61 60
125 113 114 109 105 101 99 87 88 90 87 86 83 79 76 80 77 78 75 70 69 80 67 58 56 59 63 63 64 62 56 50 69 65 65 66 63 58 68 65 63 62 62
119 120 120 115 116 113 108 101 97 86 83 80 81 85 83 79 77 76 75 69 68 77 74 64 65 60 54 53 56 68 66 58 64 65 74 75 67 66 71 66 66 67 65
120 123 125 127 116 113 111 110 104 96 89 80 74 75 76 77 73 72 73 74 71 66 65 66 62 61 57 54 54 57 65 60 60 69 76 71 70 69 76 73 65 68 69
124 126 127 120 115 116 115 113 103 99 96 97 92 81 78 78 73 67 66 65 63 60 59 58 56 58 63 59 55 57 55 63 62 67 82 85 71 69 87 83 78 74 73
129 135 119 120 122 119 120 111 105 101 94 86 85 84 84 77 67 62 58 58 57 55 55 56 55 57 53 58 58 59 56 58 66 70 74 84 90 77 90 83 86 89 86
127 126 122 119 120 120 112 106 102 96 92 87 81 71 71 74 70 64 61 58 55 56 57 58 58 55 52 60 59 63 64 63 66 69 72 80 83 84 78 99 96 84 85
125 125 123 119 118 113 110 109 106 102 99 95 89 78 75 73 68 65 62 60 61 58 58 59 56 55 55 55 56 64 61 63 69 75 77 83 81 83 88 87 83 93 89
128 122 120 116 114 117 113 108 104 100 96 91 87 82 75 72 70 67 65 64 64 63 59 57 57 57 55 53 58 64 67 63 70 80 82 78 81 82 81 81 81 79 72
125 121 122 124 121 115 109 104 99 96 95 92 88 84 79 76 74 70 68 65 64 64 63 61 60 58 56 56 56 61 63 73 75 77 81 83 82 80 84 84 81 79 79
125 123 122 122 117 115 113 107 103 99 96 93 90 86 83 79 77 73 71 68 66 66 65 64 62 59 58 58 60 65 72 73 77 80 82 82 83 84 83 81 84 84 83
126 126 123 120 116 114 112 108 105 101 98 96 94 91 86 82 79 77 74 72 69 66 67 66 64 63 61 59 67 74 75 73 73 77 81 83 84 83 83 84 83 80 78